Location: Taukkyan
(23.1052°N, 94.0030°E)
Time: 10:02:15
(UTC+00:00)

Hubble Space Telescope - Pass Details

Date: 06 July 2020
Orbit: 536 x 540 km, 28.5° (Epoch: 14 August)

Event Time Altitude Azimuth Distance (km) Brightness Sun altitude
Exits shadow 21:02:48 13° 134° (SE) 1,586 3.2 -24.4°
Drops below altitude 10° 21:03:20 10° 132° (SE) 1,781 3.5 -24.3°
Sets 21:05:40 0° 125° (SE) 2,670 4.5 -23.9°
